Miscellaneous Local Product
Issued by NWS North Platte, NE

Home | Current Version | Previous Version | Graphics & Text | Print | Product List | Glossary On
Versions: 1 2 3 4 5 6 7 8 9 10 11 12 13 14 15 16 17 18 19 20 21 22 23 24 25 26 27 28 29 30 31 32 33 34 35 36 37 38 39 40 41 42 43 44 45 46 47 48 49 50
000
AXUS43 KLBF 020010
MISLBF


WESTERN AND NORTH CENTRAL NEBRASKA HOURLY WEATHER ROUNDUP
NATIONAL WEATHER SERVICE NORTH PLATTE NE
700 PM CDT WED JUL 01 2015

***STATIONS NOT REPORTING VARIABLES SUCH AS SKY/WEATHER OR
PRESSURE ARE PROVIDED BY THE NEBRASKA DEPARTMENT OF
ROADS...RAWS...AND APRS NETWORKS...AND ARE NOT UNDER
NATIONAL WEATHER SERVICE QUALITY CONTROL***

...OBSERVATIONS IN AND NEAR THE EASTERN PANHANDLE OF NEBRASKA...

CITY           SKY/WX    TMP DP  RH WIND       PRES   REMARKS
PINE RIDGE     SUNNY     83  61  47 NE7       29.98F
CHADRON        SUNNY     84  60  44 NE12      29.97S
ALLIANCE       SUNNY     86  58  38 E12       29.99F
SIDNEY         MOSUNNY   89  53  29 E8        30.02F
WHITECLAY        N/A     83  58  43 NE7         N/A
BIG SPRINGS      N/A     91  55  29 E12         N/A
$$

...OBSERVATIONS IN NORTH CENTRAL NEBRASKA...

CITY           SKY/WX    TMP DP  RH WIND       PRES   REMARKS
VALENTINE      SUNNY     83  66  56 N10       29.93S
THEDFORD       SUNNY     86  61  42 N8        29.95S
AINSWORTH      SUNNY     84  64  50 N12G20    29.92S
O`NEILL        MOSUNNY   78  68  71 NE5       29.90S
ORD            SUNNY     85  67  54 E7        29.86F
BROKEN BOW     SUNNY     86  69  56 NE5       29.90S HX  90
VALENTINE NWR    N/A     85  60  43 N12G20      N/A
SPRINGVIEW       N/A     83  69  62 NE8         N/A
HALSEY           N/A     88  60  38 N7G14       N/A
BREWSTER         N/A     92  64  39 W15         N/A  HX  93
ROSE             N/A     93  81  66 E8          N/A  HX 113
NEWPORT          N/A     78  72  83 E6          N/A
SARGENT          N/A     85  66  53 NE3G12      N/A
CHAMBERS         N/A     86  65  49 E3          N/A
EWING            N/A     80  71  74 CALM        N/A
$$

...OBSERVATIONS IN SOUTHWEST NEBRASKA AND FAR NORTHEAST COLORADO...

CITY           SKY/WX    TMP DP  RH WIND       PRES   REMARKS
WRAY           FAIR      92  52  25 NE12      29.98R
HOLYOKE        FAIR      95  55  26 E5        29.98S HX  93
IMPERIAL       SUNNY     93  54  26 NE12      29.94S HX  91
OGALLALA       SUNNY     90  55  30 NE7       29.95F
NORTH PLATTE   MOSUNNY   90  55  30 N14       29.92R
MCCOOK         SUNNY     92  64  39 E7        29.89S HX  93
LEXINGTON      SUNNY     89  66  46 E7        29.90S HX  91
PAXTON           N/A     92  57  30 N9          N/A  HX  90
GOTHENBURG       N/A     92  61  35 N3          N/A  HX  92
CALLAWAY         N/A     89  65  45 N8          N/A  HX  91
$$

...NORTH PLATTE AREA...

CITY           SKY/WX    TMP DP  RH WIND       PRES   REMARKS
AIRPORT        MOSUNNY   90  55  30 N14       29.92R
DOWNTOWN         N/A     90  58  34 N5G12       N/A
HILLCREST        N/A     89  56  32 NE13        N/A
$$

...SOME WEATHER OBSERVATIONS FROM AROUND THE REGION...

CITY           SKY/WX    TMP DP  RH WIND       PRES   REMARKS
DENVER         PTSUNNY   77  58  51 E15       30.18R
LARAMIE        PTSUNNY   75  49  39 S9        30.23F
CHEYENNE       CLOUDY    74  54  49 CALM      30.20R
SCOTTSBLUFF    PTSUNNY   89  52  28 SE13      29.98F
RAPID CITY     SUNNY     81  65  58 N18       29.97S
PIERRE         PTSUNNY   80  67  64 E8        29.88F
WINNER         FAIR      82  64  54 E12       29.90S
SIOUX FALLS    PTSUNNY   74  62  66 E10       29.95S
OMAHA          MOSUNNY   80  68  66 NE12      29.87R
GRAND ISLAND   PTSUNNY   84  68  58 NE8       29.88S
KANSAS CITY    PTSUNNY   83  75  77 E12       29.81S HX  90
WICHITA        MOSUNNY   97  66  36 N8        29.74F HX 100
HAYS           SUNNY     97  55  24 NE10G21   29.85R HX  95
LIBERAL        MOSUNNY   97  55  24 NE10      29.90S HX  95
GOODLAND       SUNNY     92  49  22 NE8       29.96F
$$



USA.gov is the U.S. government's official web portal to all federal, state and local government web resources and services.